[Date Prev][Date Next][Thread Prev][Thread Next] - [Date Index][Thread Index][Author Index]
2 Line ISS Keps 8-2
- Subject: [sarex] 2 Line ISS Keps 8-2
- From: "Dave Larsen PhD" <doc@xxxxxxxxxxx>
- Date: Mon, 2 Aug 2004 04:00:14 -0700
ISS
1 25544U 98067A 04215.35547454 .00010429 00000-0 87958-4 0 3563
2 25544 51.6334 90.1429 0006148 73.7079 276.4548 15.70454020325566
----
Via the sarex mailing list at AMSAT.ORG courtesy of AMSAT-NA.
To unsubscribe, send "unsubscribe sarex" to Majordomo@amsat.org
AMSAT Home